Погода в Темирлановке

Казахстан     42°35′56″N   69°15′22″E
темп.,
°C
ветер,
м/с
пор.,
м/с
влажн.,
%
обл.,
%
осадки,
мм/ч
давл.,
гПа
погр.,
м
23 октября, сб
сб2300:00+5св22555 0.0 103629
03:00+4в22555 0.0 103625
06:00+4всв33575 0.0 103545
09:00+5всв24535 0.0 1035117
12:00+11ссв33335 0.0 1033534
15:00+14ссв33215 0.0 1030804
18:00+12ссз22235 0.0 102929
21:00+10ссв33315 0.0 102936
24 октября, вс
вс2400:00+8в34451 0.0 102753
03:00+7всв35500 0.0 102581
06:00+7всв36540 0.0 102486
09:00+8всв37500 0.0 1024174
12:00+15всв46280 0.0 1021654
15:00+19св34200 0.0 10181133
18:00+16св33270 0.0 101742
21:00+12всв47380 0.0 1017118
25 октября, пн
пн2500:00+11в35420 0.0 101667
03:00+10вюв22420 0.0 101520
06:00+9юв22400 0.0 101511
09:00+11юв22370 0.0 101614
12:00+17юз22210 0.0 1016387
15:00+20зюз23150 0.0 1015834
18:00+18юв00190 0.0 101511
21:00+14ю22240 0.0 101611
26 октября, вт
вт2600:00+13ю33300 0.0 101628
03:00+12ю33310 0.0 101715
06:00+11ю3332100 0.0 101716
09:00+12ююз333216 0.0 101954
12:00+19зюз581950 0.0 1018836
15:00+20зюз6816100 0.0 10181216
18:00+17з33195 0.0 101840
21:00+15ю2223100 0.0 102014
27 октября, ср
ср2700:00+14ююз3427100 0.0 102069
03:00+12юз3431100 0.0 102255
06:00+12зюз2233100 0.0 102320
09:00+12ююз1134100 0.0 102434
12:00+14зсз2235100 0.0 1025420
15:00+15сз2233100 0.0 1024710
18:00+14ссз234299 0.0 102476
21:00+12ссз2449100 0.0 1026127